EHI
2 11 23 26 22 21 20 13 8 7 7 6 5 3 2 1 0 0 0 0 1 2 3 2 2 3 3 2 1 0 0 0 0 0 0 0 0 0 0 0 0 0 0
3 11 22 26 23 22 20 13 7 6 6 6 5 4 3 2 1 1 1 1 1 2 3 3 3 3 2 2 1 0 0 0 0 0 0 0 0 0 0 0 0 0 0
3 9 19 25 23 21 18 12 8 6 6 6 5 5 5 3 2 2 2 1 1 1 2 2 3 3 3 2 1 0 0 0 0 0 0 0 0 0 0 0 0 0 0
4 7 16 22 22 17 13 10 9 9 8 6 5 5 5 4 3 3 4 2 1 0 0 1 2 4 5 4 1 0 0 0 0 0 0 0 0 0 0 0 0 0 0
4 6 13 21 20 15 11 9 9 9 8 7 6 6 5 5 4 4 4 2 1 1 1 2 3 4 6 5 2 1 0 0 0 0 0 0 0 0 0 0 0 0 0
4 6 11 17 18 15 12 10 9 8 7 5 5 4 4 5 5 5 4 2 2 2 2 3 3 3 5 5 3 2 1 0 0 0 0 0 0 0 0 0 0 0 0
4 5 8 13 16 15 13 10 8 6 5 4 3 3 3 4 4 4 4 3 2 2 2 2 2 2 3 3 3 2 2 1 0 0 0 0 0 0 0 0 0 0 0
2 2 5 8 11 12 10 6 4 4 4 3 2 2 2 2 2 3 2 1 1 1 2 2 2 1 1 1 1 2 2 1 0 0 0 0 0 0 0 0 0 0 0
1 1 2 3 5 6 5 2 2 2 3 2 1 1 1 1 1 1 1 0 0 1 1 3 3 2 1 0 0 1 1 0 0 0 0 0 0 0 0 0 0 0 0
2 1 0 0 1 2 2 2 1 1 1 1 0 0 0 0 0 0 0 0 0 0 1 2 3 3 2 0 0 0 0 0 0 0 0 0 0 0 0 0 0 0 0
2 1 0 0 0 0 1 1 1 0 0 0 0 0 0 0 0 0 0 0 0 0 1 2 2 1 1 0 0 0 0 0 0 0 0 0 0 0 0 0 0 0 0
2 2 1 1 0 0 1 1 1 0 0 0 0 0 0 0 0 0 0 0 0 0 1 2 1 0 0 0 0 0 0 0 1 0 0 0 0 0 0 0 0 0 0
1 2 2 2 1 0 1 3 3 2 1 0 0 0 0 0 0 1 1 1 1 0 0 1 1 1 0 0 0 0 0 1 2 1 0 0 0 0 0 0 0 0 0
0 1 1 2 1 1 2 4 5 3 2 1 1 1 1 0 0 1 2 2 2 1 0 0 1 1 0 0 0 0 0 0 1 1 0 0 0 0 0 0 0 0 0
0 0 0 1 2 2 3 4 4 2 1 1 2 2 2 1 0 0 1 2 2 2 1 1 1 1 0 0 0 0 0 0 0 0 0 0 0 0 0 0 0 0 0
0 0 0 0 1 2 3 3 2 1 0 1 2 2 2 1 0 0 0 0 1 2 2 1 0 0 0 0 0 0 0 0 0 0 0 0 0 0 0 0 0 0 0
0 0 0 0 0 1 3 3 2 1 0 0 1 1 1 0 0 0 0 0 0 1 1 1 0 0 0 0 0 0 0 0 0 0 0 0 0 0 0 0 0 0 0
0 0 0 0 0 1 2 3 2 1 0 0 0 0 0 0 0 0 0 0 0 0 0 0 0 0 0 0 0 0 0 0 0 0 0 0 0 0 0 0 0 0 0
0 0 0 0 0 1 2 3 2 1 0 0 0 0 0 0 0 0 0 0 0 0 0 0 0 0 0 0 0 0 0 0 0 0 0 0 0 0 0 0 0 0 0
0 0 0 0 0 1 2 3 2 1 0 1 1 1 0 0 0 0 0 0 0 0 0 0 0 0 0 0 0 0 0 0 0 0 0 0 0 0 0 0 0 0 0
0 0 0 0 0 1 2 3 3 1 0 1 1 1 0 0 0 0 0 0 0 0 0 0 0 0 0 0 0 0 0 0 0 0 0 0 0 0 0 0 0 0 0
0 0 0 0 0 1 3 3 3 2 1 0 0 0 0 0 0 0 0 0 0 0 0 0 0 0 0 0 0 0 0 0 0 0 0 0 0 0 0 0 0 0 0
0 0 0 0 1 2 3 3 3 3 2 1 0 0 0 0 0 0 0 0 0 0 0 0 0 0 0 0 0 0 0 0 0 0 0 0 0 0 0 0 0 0 0
0 0 0 1 2 3 3 3 3 3 3 2 1 0 0 0 0 0 0 0 0 0 0 0 0 0 0 0 0 0 0 0 0 0 0 0 0 0 0 0 0 0 1
0 0 0 1 2 2 1 2 2 2 3 2 1 0 0 0 0 0 0 0 0 0 0 0 0 0 0 0 0 0 0 0 0 0 0 0 0 0 0 0 0 0 1
0 1 1 1 2 1 1 1 2 2 2 1 0 0 0 0 0 0 0 0 0 0 0 0 0 0 0 0 0 0 0 0 0 0 0 0 0 0 0 0 0 0 1
Wind_Speed
5 6 7 7 9 9 10 10 10 10 9 9 9 9 9 9 8 8 8 8 7 7 7 7 8 8 8 8 7 7 7 7 7 7 7 7 7 6 6 6 5 6 7
6 7 8 8 9 9 10 9 10 9 9 9 9 9 9 8 8 8 8 8 7 7 6 6 7 7 8 8 8 7 7 7 7 6 6 6 6 6 6 5 3 4 6
7 8 9 9 9 10 10 10 9 9 9 9 9 8 8 8 8 8 8 7 7 6 6 6 6 6 7 7 7 7 7 7 6 5 4 4 5 5 5 5 4 4 5
7 8 8 9 9 10 10 10 10 9 9 8 8 8 7 7 7 7 7 7 7 6 5 5 5 6 6 6 6 6 6 6 5 4 3 3 3 5 4 4 4 4 4
8 8 9 9 9 9 9 10 9 9 8 8 7 7 7 7 7 6 6 6 6 6 6 5 5 5 6 6 6 6 6 6 5 4 2 2 2 4 4 4 4 3 3
8 8 9 8 9 9 9 9 9 9 8 8 7 7 6 6 6 7 6 6 6 6 5 5 5 5 5 5 6 6 6 5 5 3 2 2 2 4 4 4 4 3 4
7 7 8 8 9 9 8 8 8 8 8 7 7 7 7 6 6 6 7 6 6 5 5 4 4 4 4 4 4 4 4 3 3 2 2 2 2 3 4 4 4 4 4
7 6 7 8 8 8 8 8 8 7 7 7 6 7 6 6 6 6 6 6 6 5 5 4 4 3 3 3 4 4 4 3 3 3 3 3 2 3 4 4 5 5 4
6 6 5 6 7 8 8 7 7 7 7 6 6 6 6 6 5 5 5 5 5 4 4 4 3 3 3 3 3 3 3 3 4 2 3 2 3 5 5 5 5 5 5
5 4 4 5 5 5 6 7 7 6 6 6 6 5 5 5 5 4 4 4 4 4 3 3 3 2 2 2 2 2 3 4 4 3 2 1 3 5 6 7 6 6 6
4 3 3 4 4 4 4 5 5 6 5 4 5 5 3 2 2 2 3 3 3 2 2 2 2 1 1 2 2 2 4 4 4 3 2 0 4 6 8 8 8 8 7
5 4 3 3 3 3 3 4 3 3 3 2 2 2 2 1 1 1 3 2 2 1 2 1 1 2 3 2 3 4 3 4 4 3 2 2 6 7 8 9 9 10 10
5 4 3 3 3 3 2 2 2 2 2 2 2 1 1 1 1 0 1 1 2 2 2 2 3 2 2 2 2 3 4 4 3 3 3 4 7 9 9 10 10 10 11
6 5 4 4 3 3 2 2 2 2 2 1 2 1 1 0 0 0 1 1 1 1 2 2 2 3 3 4 4 4 4 4 4 3 3 4 8 9 10 11 11 11 11
6 6 5 4 4 4 3 2 3 2 2 2 1 1 1 1 1 1 1 1 2 2 2 3 3 3 4 4 4 5 5 6 5 5 3 5 8 9 11 12 12 12 12
7 6 5 5 5 4 4 3 2 2 2 2 2 2 2 2 2 2 2 2 2 2 3 3 4 4 4 4 5 6 6 6 6 6 6 5 8 10 11 13 13 13 13
7 6 6 5 5 5 5 4 2 3 3 2 2 3 2 2 2 2 2 3 3 3 3 4 4 4 4 4 6 6 6 7 7 7 7 6 6 9 11 13 13 13 14
7 6 6 5 6 6 5 4 3 3 3 3 2 3 3 3 3 3 3 3 3 3 3 4 4 4 4 5 5 5 6 6 8 8 7 7 6 6 8 11 12 13 14
8 7 7 6 6 6 5 4 3 3 3 3 3 3 3 3 4 3 3 3 4 3 3 4 4 4 5 5 5 5 6 6 7 8 8 8 8 8 7 8 11 12 13
7 7 7 7 6 5 4 3 3 3 3 3 3 3 4 3 4 4 3 4 4 4 4 4 5 5 5 5 6 6 6 7 7 7 8 7 7 8 9 8 7 8 11
7 8 8 7 6 5 4 4 4 4 4 3 3 4 5 4 4 4 4 4 4 5 5 6 5 6 5 4 5 6 6 7 8 7 7 7 8 8 9 9 7 7 6
8 8 7 7 7 6 5 4 3 4 3 3 3 4 5 5 5 4 5 5 5 5 6 7 6 5 5 4 5 5 6 6 6 7 7 7 9 8 8 9 9 9 8
7 7 6 7 6 6 5 4 3 3 4 4 4 4 5 5 5 5 6 6 6 6 6 7 7 8 6 5 5 5 5 6 6 6 8 8 8 7 8 8 10 10 10
7 6 6 6 6 6 6 5 6 5 5 5 4 4 5 5 6 6 6 6 6 6 7 7 7 7 7 6 6 6 7 7 7 6 6 7 8 9 9 8 9 10 10
5 5 5 5 6 6 6 6 6 6 5 4 4 5 5 5 5 6 6 6 7 6 8 8 8 8 7 8 6 6 7 7 9 8 8 7 7 7 8 8 8 8 9
4 4 5 5 5 5 6 6 7 7 6 6 6 5 5 4 4 6 6 7 7 7 8 8 8 9 8 9 8 7 7 7 7 7 8 8 8 6 7 7 7 8 7
Wind_Direction
132 132 120 118 123 120 117 113 110 109 110 111 113 116 120 121 122 122 123 125 126 127 130 133 132 130 129 126 123 120 114 110 109 108 107 105 105 112 118 122 134 117 108
129 133 118 114 121 119 115 112 109 107 106 107 108 110 113 116 119 123 123 123 122 124 127 130 132 131 129 127 123 120 117 115 113 114 117 122 114 111 117 123 115 104 118
130 131 127 113 116 116 113 111 109 106 105 104 106 107 109 112 117 122 122 121 121 123 121 120 119 128 130 129 128 126 121 120 122 127 155 149 127 122 124 123 119 127 137
127 129 120 113 112 113 112 110 109 107 105 103 105 107 108 111 115 119 120 118 116 117 117 115 112 115 119 125 130 132 130 129 129 153 174 143 138 128 142 143 139 137 145
127 127 112 108 111 111 110 110 109 107 104 102 103 106 108 109 109 112 116 116 114 111 109 108 110 114 116 119 125 131 133 134 142 184 157 152 153 135 161 164 156 149 156
127 126 114 107 111 111 110 110 108 107 104 102 100 104 106 107 107 107 105 105 105 108 109 108 109 113 114 120 127 128 132 137 175 183 167 173 169 149 178 179 173 168 175
121 119 119 109 109 109 108 109 109 108 107 104 101 101 104 107 104 105 103 101 101 105 111 115 116 115 121 126 135 139 139 151 203 183 182 184 164 157 193 194 192 190 191
121 118 122 113 107 105 105 106 106 105 105 105 104 102 100 99 103 106 104 102 99 100 104 112 120 122 127 138 144 146 142 182 208 204 202 197 155 186 211 212 208 207 208
121 119 122 131 125 114 106 103 102 100 99 100 101 100 96 93 94 103 106 105 105 103 101 102 111 124 141 147 157 156 155 207 225 214 215 209 172 209 224 225 220 222 223
125 124 124 129 135 136 128 109 102 97 92 90 89 88 93 103 104 99 110 106 107 106 107 110 109 111 147 163 163 173 177 207 229 226 226 196 192 226 236 235 230 231 230
142 139 141 140 141 141 134 125 123 110 98 105 104 94 108 131 130 124 95 84 103 110 114 119 120 121 170 178 174 181 199 224 232 233 235 284 238 244 249 246 240 236 236
174 163 160 163 155 157 148 146 145 138 134 136 125 121 119 108 99 103 107 100 118 129 149 148 165 184 216 211 188 202 224 239 237 235 232 248 255 257 256 251 247 243 242
186 177 178 175 175 174 170 160 156 157 155 157 138 142 151 127 119 158 151 160 189 201 211 197 212 225 233 236 236 232 243 242 244 243 232 241 260 262 262 259 256 251 246
196 193 190 187 187 187 189 179 179 176 175 170 171 183 203 209 241 290 249 248 239 236 239 238 242 242 246 242 241 243 245 247 247 250 241 235 259 265 266 266 263 258 254
206 202 199 199 198 193 193 199 188 190 192 186 187 194 217 234 240 246 262 258 257 265 255 251 248 247 249 252 251 249 250 252 255 250 244 230 253 261 264 267 266 262 260
208 205 201 203 203 199 201 203 201 196 196 203 201 206 216 234 242 250 259 270 270 267 268 263 258 253 250 252 256 255 254 254 255 257 260 239 239 252 261 265 266 264 263
207 203 200 202 205 206 207 208 212 204 205 206 208 217 222 235 244 248 255 260 269 271 266 264 264 261 259 256 257 258 257 255 257 257 258 260 248 242 253 262 265 265 265
207 204 199 199 205 207 208 208 212 216 209 211 214 219 223 234 244 249 253 260 268 270 271 265 265 265 262 261 261 260 261 259 259 260 257 256 259 256 248 253 262 265 266
208 206 202 202 206 208 207 208 217 225 221 221 222 225 229 236 241 247 253 260 262 262 265 269 268 268 270 269 268 268 264 261 261 259 258 257 258 259 259 249 253 261 264
210 208 204 202 205 204 202 204 212 224 223 224 228 231 238 240 244 251 252 258 261 258 258 261 266 268 269 272 273 273 268 264 259 257 258 258 257 257 259 263 255 251 255
208 207 203 204 202 201 200 206 212 219 220 223 227 234 239 243 246 249 255 257 257 256 258 262 264 267 271 277 278 277 269 262 256 257 256 257 257 258 260 259 259 260 254
208 207 206 206 204 206 209 212 223 232 230 232 232 234 237 241 245 247 250 254 255 257 256 257 259 261 267 262 271 281 276 266 252 253 253 253 257 256 257 258 259 259 262
208 206 207 207 208 209 207 206 210 225 225 225 229 234 239 245 245 247 251 254 255 255 254 254 254 254 260 260 255 261 270 271 285 255 251 251 251 253 257 259 260 259 259
210 205 210 207 209 209 205 210 217 229 230 235 238 242 248 249 251 249 250 254 256 256 255 254 254 256 253 255 255 253 261 277 276 278 259 253 256 257 257 260 262 260 259
206 203 208 207 209 211 211 216 224 237 238 239 241 246 253 251 250 251 252 253 254 256 257 257 256 253 251 252 251 253 257 260 260 266 274 273 265 259 260 262 263 262 261
199 199 205 206 210 211 214 218 225 240 241 241 243 248 253 253 251 251 254 254 254 254 255 256 255 253 252 252 252 249 249 251 251 256 266 272 273 273 270 267 265 263 264